Location: Unspecified
(49.9820°N, 20.4363°E)
Time: 04:27:42
(UTC+02:00)

Vanguard 3 - Pass Details

Date: 22 May 2026
Orbit: 507 x 3204 km, 33.3° (Epoch: 6 June)

Event Time Altitude Azimuth Distance (km) Brightness Sun altitude
Rises 09:19:39 0° 172° (S) 5,359 11.6 41.6°
Reaches altitude 10° 09:27:00 10° 143° (SE) 5,049 12.0 42.7°
Maximum altitude 09:31:08 12° 127° (SE) 5,229 12.3 43.3°
Drops below altitude 10° 09:35:38 10° 111° (ESE) 5,654 12.5 44.0°
Sets 09:45:37 0° 86° (E) 7,079 12.5 45.4°
